カタログに戻る

CZ-4 DEB

運用中PO
NORAD 26436·DEBRIS·🇨🇳 China

打ち上げ Oct 14, 1999 から Taiyuan Satellite Launch Center

Loading…

次のパス (今後24時間)

TLE

最新Source: Space-Track

元期: Sep 14, 2026, 10:01 UTC

1 26436U 99057KH  26257.41796480 -.00000012  00000-0  23924-4 0  9990
2 26436  99.5117 320.2106 0704293  33.3954 330.9592 12.98273934614427

AllMySatでCZ-4 DEBをリアルタイム追跡

Download on the App Store